Date String (YYYY-MM-DD hh:mm:ss) UTC,Instrument flags,Ambient pressure (hPa),Sample flow (lpm),Bypass flow (lpm),Sample temperature (°C),Ambient temperature (°C),ASC tube jacket temperature (°C),LED temperature (°C),Box temperature (°C),Sample RH (%),Span deviation,Mass concentration (μg/m³),Mass concentration (μg/m³),Mass concentration (μg/m³)
DateTimeUTC,F1_M11,P_M11,Q1_M11,Q2_M11,T1_M11,T2_M11,T3_M11,T4_M11,T5_M11,U1_M11,ZSPAN_M11,X2_M11,X0_M11,X1_M11
2023-04-08 22:00:00,,0829.0,5.00,0.00,25.5,24.1,00.0,33.8,27.1,09.6,0000.0,0003.57,0010.33,0001.85
2023-04-08 22:01:00,,0829.0,4.99,0.00,25.5,24.1,00.0,33.8,27.1,09.8,0000.0,0003.62,0010.84,0001.84
2023-04-08 22:02:00,,0829.0,5.00,0.00,25.5,24.1,00.0,33.8,27.2,09.9,0000.0,0003.60,0011.14,0001.84
2023-04-08 22:03:00,,0829.0,4.99,0.00,25.5,24.2,00.0,33.8,27.2,09.8,0000.0,0003.59,0010.76,0001.83
2023-04-08 22:04:00,,0828.9,5.00,0.00,25.5,24.2,00.0,33.8,27.2,10.0,0000.0,0003.55,0010.85,0001.82
2023-04-08 22:05:00,,0829.0,5.02,0.00,25.6,24.2,00.0,33.8,27.2,09.8,0000.0,0003.52,0011.28,0001.83
2023-04-08 22:06:00,,0829.0,4.99,0.00,25.6,24.2,00.0,33.8,27.2,10.1,0000.0,0003.54,0011.31,0001.81
2023-04-08 22:07:00,,0829.0,4.99,0.00,25.6,24.2,00.0,33.8,27.2,09.9,0000.0,0003.56,0011.46,0001.81
2023-04-08 22:08:00,,0829.0,4.99,0.00,25.6,24.2,00.0,33.8,27.2,09.9,0000.0,0003.59,0011.88,0001.81
2023-04-08 22:09:00,,0829.0,5.01,0.00,25.6,24.2,00.0,33.8,27.2,10.1,0000.0,0003.59,0011.64,0001.80
2023-04-08 22:10:00,,0829.0,5.00,0.00,25.6,24.2,00.0,33.9,27.2,09.7,0000.0,0003.58,0011.47,0001.78
2023-04-08 22:11:00,,0829.1,4.99,0.00,25.6,24.2,00.0,33.9,27.2,09.7,0000.0,0003.58,0011.14,0001.78
2023-04-08 22:12:00,,0829.1,5.00,0.00,25.6,24.2,00.0,33.9,27.2,09.8,0000.0,0003.58,0010.88,0001.78
2023-04-08 22:13:00,,0829.0,5.01,0.00,25.6,24.2,00.0,33.9,27.2,09.8,0000.0,0003.64,0010.96,0001.79
2023-04-08 22:14:00,,0829.0,5.01,0.00,25.6,24.3,00.0,33.9,27.2,09.8,0000.0,0003.68,0011.35,0001.80
2023-04-08 22:15:00,,0829.0,5.00,0.00,25.7,24.3,00.0,33.9,27.2,09.7,0000.0,0003.72,0011.22,0001.82
2023-04-08 22:16:00,,0829.0,5.00,0.00,25.7,24.3,00.0,33.9,27.3,09.9,0000.0,0003.75,0010.77,0001.83
2023-04-08 22:17:00,,0829.0,5.00,0.00,25.7,24.3,00.0,33.9,27.3,09.5,0000.0,0003.78,0010.71,0001.85
2023-04-08 22:18:00,,0829.0,5.00,0.00,25.7,24.4,00.0,33.9,27.3,09.7,0000.0,0003.79,0011.02,0001.87
2023-04-08 22:19:00,,0829.0,5.00,0.00,25.7,24.4,00.0,33.9,27.3,09.9,0000.0,0003.76,0010.48,0001.88
2023-04-08 22:20:00,,0829.0,5.00,0.00,25.7,24.4,00.0,34.0,27.3,09.7,0000.0,0003.78,0010.21,0001.89
2023-04-08 22:21:00,,0829.0,5.00,0.00,25.7,24.4,00.0,34.0,27.3,10.0,0000.0,0003.74,0010.68,0001.90
2023-04-08 22:22:00,,0829.1,5.01,0.00,25.7,24.4,00.0,34.0,27.3,09.7,0000.0,0003.71,0010.93,0001.91
2023-04-08 22:23:00,,0829.0,5.01,0.00,25.8,24.4,00.0,34.0,27.3,09.6,0000.0,0003.66,0010.60,0001.90
2023-04-08 22:24:00,,0829.1,4.99,0.00,25.8,24.4,00.0,34.0,27.4,09.6,0000.0,0003.60,0010.17,0001.89
2023-04-08 22:25:00,,0829.1,4.99,0.00,25.8,24.4,00.0,34.0,27.4,09.8,0000.0,0003.62,0009.86,0001.88
2023-04-08 22:26:00,,0829.0,5.00,0.00,25.8,24.4,00.0,34.0,27.4,09.8,0000.0,0003.60,0009.73,0001.88
2023-04-08 22:27:00,,0829.0,5.01,0.00,25.8,24.5,00.0,34.0,27.4,09.6,0000.0,0003.58,0009.73,0001.87
2023-04-08 22:28:00,,0829.0,5.01,0.00,25.8,24.5,00.0,34.0,27.4,09.5,0000.0,0003.55,0009.66,0001.86
2023-04-08 22:29:00,,0829.0,4.99,0.00,25.8,24.5,00.0,34.0,27.4,09.6,0000.0,0003.55,0009.88,0001.86
2023-04-08 22:30:00,,0829.0,4.99,0.00,25.8,24.5,00.0,34.1,27.4,09.6,0000.0,0003.58,0010.07,0001.87
2023-04-08 22:31:00,,0829.0,5.00,0.00,25.9,24.5,00.0,34.1,27.4,09.6,0000.0,0003.57,0010.09,0001.87
2023-04-08 22:32:00,,0828.9,5.00,0.00,25.9,24.5,00.0,34.1,27.5,09.6,0000.0,0003.55,0010.61,0001.88
2023-04-08 22:33:00,,0828.9,5.01,0.00,25.9,24.6,00.0,34.1,27.5,10.0,0000.0,0003.55,0010.56,0001.89
2023-04-08 22:34:00,,0829.0,5.00,0.00,25.9,24.6,00.0,34.1,27.5,09.9,0000.0,0003.54,0010.75,0001.89
2023-04-08 22:35:00,,0828.9,5.00,0.00,25.9,24.6,00.0,34.1,27.5,09.7,0000.0,0003.51,0011.01,0001.90
2023-04-08 22:36:00,,0828.9,5.00,0.00,25.9,24.6,00.0,34.1,27.5,09.6,0000.0,0003.50,0011.00,0001.90
2023-04-08 22:37:00,,0829.0,4.99,0.00,25.9,24.6,00.0,34.1,27.5,09.5,0000.0,0003.47,0011.20,0001.90
2023-04-08 22:38:00,,0829.0,5.01,0.00,25.9,24.6,00.0,34.2,27.5,09.5,0000.0,0003.47,0011.16,0001.91
2023-04-08 22:39:00,,0829.0,5.00,0.00,26.0,24.6,00.0,34.2,27.6,09.6,0000.0,0003.52,0011.90,0001.93
2023-04-08 22:40:00,,0829.0,5.01,0.00,26.0,24.7,00.0,34.2,27.5,09.5,0000.0,0003.55,0011.52,0001.93
2023-04-08 22:41:00,,0829.0,5.00,0.00,26.0,24.7,00.0,34.2,27.5,09.5,0000.0,0003.54,0011.05,0001.93
2023-04-08 22:42:00,,0828.9,5.00,0.00,26.0,24.7,00.0,34.2,27.6,09.6,0000.0,0003.52,0011.02,0001.92
2023-04-08 22:43:00,,0828.9,5.00,0.00,26.0,24.7,00.0,34.2,27.6,09.6,0000.0,0003.53,0010.34,0001.92
2023-04-08 22:44:00,,0828.9,5.00,0.00,26.0,24.7,00.0,34.2,27.6,09.5,0000.0,0003.56,0010.00,0001.94
2023-04-08 22:45:00,,0829.0,4.99,0.00,26.0,24.7,00.0,34.2,27.6,09.5,0000.0,0003.54,0010.16,0001.92
2023-04-08 22:46:00,,0829.0,4.99,0.00,26.0,24.7,00.0,34.3,27.6,09.6,0000.0,0003.59,0010.96,0001.91
2023-04-08 22:47:00,,0829.0,4.99,0.00,26.1,24.8,00.0,34.3,27.6,09.6,0000.0,0003.62,0011.24,0001.91
2023-04-08 22:48:00,,0829.0,5.00,0.00,26.1,24.8,00.0,34.3,27.6,09.4,0000.0,0003.62,0010.83,0001.92
2023-04-08 22:49:00,,0829.0,5.00,0.00,26.1,24.8,00.0,34.3,27.7,09.6,0000.0,0003.62,0010.72,0001.92
2023-04-08 22:50:00,,0829.0,5.00,0.00,26.1,24.8,00.0,34.3,27.7,09.6,0000.0,0003.58,0010.01,0001.92
2023-04-08 22:51:00,,0829.0,5.00,0.00,26.1,24.8,00.0,34.3,27.7,09.6,0000.0,0003.56,0010.06,0001.91
2023-04-08 22:52:00,,0829.0,5.00,0.00,26.1,24.9,00.0,34.4,27.7,09.6,0000.0,0003.56,0010.00,0001.92
2023-04-08 22:53:00,,0829.1,5.00,0.00,26.1,24.9,00.0,34.4,27.8,09.7,0000.0,0003.61,0010.17,0001.95
2023-04-08 22:54:00,,0829.1,5.00,0.00,26.2,24.9,00.0,34.4,27.8,09.7,0000.0,0003.62,0010.78,0001.97
2023-04-08 22:55:00,,0829.0,5.01,0.00,26.2,24.9,00.0,34.4,27.8,09.5,0000.0,0003.63,0010.60,0001.98
2023-04-08 22:56:00,,0829.0,5.00,0.00,26.2,24.9,00.0,34.4,27.8,09.8,0000.0,0003.63,0010.71,0002.01
2023-04-08 22:57:00,,0829.0,5.00,0.00,26.2,24.9,00.0,34.4,27.8,10.0,0000.0,0003.59,0010.74,0002.01
2023-04-08 22:58:00,,0829.0,5.00,0.00,26.2,25.0,00.0,34.4,27.8,10.1,0000.0,0003.60,0010.76,0002.02
2023-04-08 22:59:00,,0829.0,5.01,0.00,26.2,25.0,00.0,34.4,27.8,10.3,0000.0,0003.60,0011.02,0002.01
